| time (UTC) | temp F | wind direction | speed MPH | gust MPH | rain 1hr in | rain 24hr in | rain mn in | humidity % | barometer mb |
| 20260504050004 | 38 | 141 | 0.0 | 1.0 | 0.00 | 0.00 | 0.00 | 82 | 1011.9 |
| 20260504040004 | 40 | 137 | 0.0 | 0.0 | 0.00 | 0.00 | 0.00 | 80 | 1011.5 |
| 20260504033014 | 41 | 141 | 0.0 | 2.0 | 0.00 | 0.00 | 0.00 | 77 | 1011.3 |
| 20260504030005 | 44 | 124 | 0.0 | 3.0 | 0.00 | 0.00 | 0.00 | 73 | 1011.3 |
| 20260504023008 | 45 | 149 | 0.0 | 3.0 | 0.00 | 0.00 | 0.00 | 66 | 1011.2 |
| 20260504020000 | 46 | 147 | 0.0 | 0.0 | 0.00 | 0.00 | 0.00 | 61 | 1011.2 |
| 20260504013008 | 47 | 152 | 0.0 | 1.0 | 0.00 | 0.00 | 0.00 | 60 | 1011.2 |
| 20260504010000 | 48 | 152 | 0.0 | 1.0 | 0.00 | 0.00 | 0.00 | 61 | 1010.8 |
| 20260504003009 | 48 | 144 | 0.0 | 0.0 | 0.00 | 0.00 | 0.00 | 58 | 1010.5 |
| 20260503230001 | 53 | 165 | 0.0 | 12.0 | 0.00 | 0.00 | 0.00 | 46 | 1009.8 |
| 20260503223009 | 54 | 186 | 3.0 | 14.0 | 0.00 | 0.00 | 0.00 | 46 | 1009.8 |
| 20260503220001 | 54 | 182 | 2.0 | 10.0 | 0.00 | 0.00 | 0.00 | 47 | 1009.6 |
| 20260503213009 | 54 | 193 | 3.0 | 12.0 | 0.00 | 0.00 | 0.00 | 46 | 1009.6 |
| 20260503203009 | 54 | 188 | 4.0 | 17.0 | 0.00 | 0.00 | 0.00 | 45 | 1009.7 |
| 20260503200001 | 53 | 149 | 3.0 | 18.0 | 0.00 | 0.00 | 0.00 | 48 | 1009.7 |
| 20260503193009 | 54 | 157 | 6.0 | 20.0 | 0.00 | 0.00 | 0.00 | 47 | 1009.4 |
| 20260503190002 | 54 | 150 | 6.0 | 16.0 | 0.00 | 0.00 | 0.00 | 47 | 1009.3 |
| 20260503183010 | 54 | 126 | 5.0 | 13.0 | 0.00 | 0.00 | 0.00 | 47 | 1009.3 |
| 20260503180002 | 53 | 154 | 4.0 | 17.0 | 0.00 | 0.02 | 0.00 | 50 | 1009.2 |
| 20260503173010 | 53 | 208 | 5.0 | 13.0 | 0.00 | 0.06 | 0.00 | 51 | 1009.4 |